Time,TemperatureF,DewpointF,PressureIn,WindDirection,WindDirectionDegrees,WindSpeedMPH,WindSpeedGustMPH,Humidity,HourlyPrecipIn,Conditions,Clouds,dailyrainin,SoftwareType,DateUTC
2013-03-13 00:00:00,44.8,23.7,29.53,North,357,4.0,5.8,43,0.00,,---,0.00,VWS V14.00,2013-03-13 05:00:00,
2013-03-13 00:01:00,44.8,23.7,29.53,North,357,4.0,5.8,43,0.00,,---,0.00,VWS V14.00,2013-03-13 05:01:00,
2013-03-13 00:02:00,44.8,23.7,29.53,NNW,341,4.0,5.8,43,0.00,,---,0.00,VWS V14.00,2013-03-13 05:02:00,
2013-03-13 00:03:00,44.8,23.7,29.53,NNW,341,4.0,5.8,43,0.00,,---,0.00,VWS V14.00,2013-03-13 05:03:00,
2013-03-13 00:04:00,44.8,23.7,29.53,NW,325,5.4,7.4,43,0.00,,---,0.00,VWS V14.00,2013-03-13 05:04:00,
2013-03-13 00:05:00,44.4,23.9,29.53,NNW,339,5.4,7.4,44,0.00,,---,0.00,VWS V14.00,2013-03-13 05:05:00,
2013-03-13 00:06:00,44.4,23.9,29.53,NNW,338,4.0,7.4,44,0.00,,---,0.00,VWS V14.00,2013-03-13 05:06:00,
2013-03-13 00:07:00,44.4,23.9,29.53,NNE,17,8.7,11.5,44,0.00,,---,0.00,VWS V14.00,2013-03-13 05:07:00,
2013-03-13 00:08:00,44.4,23.9,29.53,North,0,8.7,11.5,44,0.00,,---,0.00,VWS V14.00,2013-03-13 05:08:00,
2013-03-13 00:09:00,44.4,23.9,29.53,NW,324,8.7,11.5,44,0.00,,---,0.00,VWS V14.00,2013-03-13 05:09:00,
2013-03-13 00:10:00,44.4,23.9,29.53,NW,324,8.7,11.5,44,0.00,,---,0.00,VWS V14.00,2013-03-13 05:10:00,
2013-03-13 00:11:00,44.1,24.1,29.53,North,357,8.1,11.5,45,0.00,,---,0.00,VWS V14.00,2013-03-13 05:11:00,
2013-03-13 00:12:00,44.1,24.1,29.53,NNE,18,9.4,12.3,45,0.00,,---,0.00,VWS V14.00,2013-03-13 05:12:00,
2013-03-13 00:13:00,44.1,24.1,29.53,North,357,12.4,15.9,45,0.00,,---,0.00,VWS V14.00,2013-03-13 05:13:00,
2013-03-13 00:14:00,44.2,24.3,29.53,North,349,10.7,15.9,45,0.00,,---,0.00,VWS V14.00,2013-03-13 05:14:00,
2013-03-13 00:15:00,44.2,24.3,29.53,NNW,343,9.4,13.9,45,0.00,,---,0.00,VWS V14.00,2013-03-13 05:15:00,
2013-03-13 00:16:00,44.2,24.3,29.53,NNE,17,9.4,16.7,45,0.00,,---,0.00,VWS V14.00,2013-03-13 05:16:00,
2013-03-13 00:17:00,44.2,24.3,29.53,NNE,17,9.4,16.7,45,0.00,,---,0.00,VWS V14.00,2013-03-13 05:17:00,
2013-03-13 00:18:00,44.4,24.4,29.53,NNE,17,9.4,12.3,45,0.00,,---,0.00,VWS V14.00,2013-03-13 05:18:00,
2013-03-13 00:19:00,44.4,24.4,29.53,NNE,17,9.4,12.3,45,0.00,,---,0.00,VWS V14.00,2013-03-13 05:19:00,
2013-03-13 00:20:00,44.4,24.4,29.53,NNW,341,12.4,16.7,45,0.00,,---,0.00,VWS V14.00,2013-03-13 05:20:00,
2013-03-13 00:21:00,44.4,24.4,29.53,NNW,341,12.4,15.9,45,0.00,,---,0.00,VWS V14.00,2013-03-13 05:21:00,
2013-03-13 00:22:00,44.4,24.4,29.53,NNW,341,12.4,15.9,45,0.00,,---,0.00,VWS V14.00,2013-03-13 05:22:00,
2013-03-13 00:23:00,44.4,24.4,29.53,North,4,11.4,15.9,45,0.00,,---,0.00,VWS V14.00,2013-03-13 05:23:00,
2013-03-13 00:24:00,44.4,24.4,29.53,North,4,11.4,14.7,45,0.00,,---,0.00,VWS V14.00,2013-03-13 05:24:00,
2013-03-13 00:25:00,44.4,24.4,29.53,North,4,7.4,14.7,45,0.00,,---,0.00,VWS V14.00,2013-03-13 05:25:00,
2013-03-13 00:26:00,44.4,24.4,29.53,North,349,8.1,10.7,45,0.00,,---,0.00,VWS V14.00,2013-03-13 05:26:00,
2013-03-13 00:27:00,44.4,24.4,29.53,NNW,346,7.4,10.7,45,0.00,,---,0.00,VWS V14.00,2013-03-13 05:27:00,
2013-03-13 00:28:00,44.4,24.4,29.53,North,1,11.4,14.7,45,0.00,,---,0.00,VWS V14.00,2013-03-13 05:28:00,
2013-03-13 00:29:00,44.4,24.4,29.53,North,353,9.4,14.7,45,0.00,,---,0.00,VWS V14.00,2013-03-13 05:29:00,
2013-03-13 00:30:00,44.1,24.1,29.53,North,357,9.4,12.3,45,0.00,,---,0.00,VWS V14.00,2013-03-13 05:30:00,
2013-03-13 00:31:00,44.1,24.1,29.53,NNE,12,8.1,12.3,45,0.00,,---,0.00,VWS V14.00,2013-03-13 05:31:00,
2013-03-13 00:32:00,44.1,24.1,29.53,NNE,12,8.1,12.3,45,0.00,,---,0.00,VWS V14.00,2013-03-13 05:32:00,
2013-03-13 00:33:00,44.1,24.1,29.53,NNE,12,8.1,10.7,45,0.00,,---,0.00,VWS V14.00,2013-03-13 05:33:00,
2013-03-13 00:34:00,44.1,24.1,29.53,NNE,27,8.7,11.5,45,0.00,,---,0.00,VWS V14.00,2013-03-13 05:34:00,
2013-03-13 00:35:00,43.9,23.9,29.53,North,4,8.1,11.5,45,0.00,,---,0.00,VWS V14.00,2013-03-13 05:35:00,
2013-03-13 00:36:00,43.9,23.9,29.53,North,357,10.1,13.1,45,0.00,,---,0.00,VWS V14.00,2013-03-13 05:36:00,
2013-03-13 00:37:00,43.9,23.9,29.53,North,357,10.1,13.1,45,0.00,,---,0.00,VWS V14.00,2013-03-13 05:37:00,
2013-03-13 00:38:00,43.9,23.9,29.53,NNW,333,13.1,16.7,45,0.00,,---,0.00,VWS V14.00,2013-03-13 05:38:00,
2013-03-13 00:39:00,43.9,23.9,29.53,NNW,333,13.1,16.7,45,0.00,,---,0.00,VWS V14.00,2013-03-13 05:39:00,
2013-03-13 00:40:00,43.9,23.9,29.53,NNW,333,13.1,16.7,45,0.00,,---,0.00,VWS V14.00,2013-03-13 05:40:00,
2013-03-13 00:41:00,43.5,23.6,29.53,North,349,9.4,19.1,45,0.00,,---,0.00,VWS V14.00,2013-03-13 05:41:00,
2013-03-13 00:42:00,43.5,23.6,29.53,North,1,8.7,19.1,45,0.00,,---,0.00,VWS V14.00,2013-03-13 05:42:00,
2013-03-13 00:43:00,43.5,23.6,29.53,North,1,8.7,11.5,45,0.00,,---,0.00,VWS V14.00,2013-03-13 05:43:00,
2013-03-13 00:44:00,43.5,23.6,29.53,NNW,343,15.8,19.9,45,0.00,,---,0.00,VWS V14.00,2013-03-13 05:44:00,
2013-03-13 00:45:00,43.5,23.1,29.53,North,357,14.4,19.9,44,0.00,,---,0.00,VWS V14.00,2013-03-13 05:45:00,
2013-03-13 00:46:00,43.5,23.1,29.53,North,353,11.4,24.0,44,0.00,,---,0.00,VWS V14.00,2013-03-13 05:46:00,
2013-03-13 00:47:00,43.5,23.1,29.53,North,353,11.4,24.0,44,0.00,,---,0.00,VWS V14.00,2013-03-13 05:47:00,
2013-03-13 00:48:00,43.5,23.1,29.53,NNW,340,15.8,19.9,44,0.00,,---,0.00,VWS V14.00,2013-03-13 05:48:00,
2013-03-13 00:49:00,43.5,23.1,29.53,North,5,9.4,19.9,44,0.00,,---,0.00,VWS V14.00,2013-03-13 05:49:00,
2013-03-13 00:50:00,43.3,22.9,29.53,North,5,9.4,12.3,44,0.00,,---,0.00,VWS V14.00,2013-03-13 05:50:00,
2013-03-13 00:51:00,43.3,22.9,29.53,NNW,340,9.4,12.3,44,0.00,,---,0.00,VWS V14.00,2013-03-13 05:51:00,
2013-03-13 00:52:00,43.3,22.9,29.53,NNW,340,9.4,12.3,44,0.00,,---,0.00,VWS V14.00,2013-03-13 05:52:00,
2013-03-13 00:53:00,43.3,22.9,29.53,North,9,12.1,15.5,44,0.00,,---,0.00,VWS V14.00,2013-03-13 05:53:00,
2013-03-13 00:55:00,43.0,22.6,29.53,NNE,20,11.4,15.9,44,0.00,,---,0.00,VWS V14.00,2013-03-13 05:55:00,
2013-03-13 00:56:00,43.0,22.6,29.53,North,350,13.1,16.7,44,0.00,,---,0.00,VWS V14.00,2013-03-13 05:56:00,
2013-03-13 00:57:00,43.0,22.6,29.53,North,350,13.1,16.7,44,0.00,,---,0.00,VWS V14.00,2013-03-13 05:57:00,
2013-03-13 00:58:00,43.0,22.6,29.53,North,357,13.1,16.7,44,0.00,,---,0.00,VWS V14.00,2013-03-13 05:58:00,
2013-03-13 00:59:00,42.8,23.0,29.53,North,357,8.1,16.7,45,0.00,,---,0.00,VWS V14.00,2013-03-13 05:59:00,
2013-03-13 01:00:00,42.8,23.0,29.53,North,357,8.1,10.7,45,0.00,,---,0.00,VWS V14.00,2013-03-13 06:00:00,
2013-03-13 01:01:00,42.8,23.0,29.53,North,357,15.8,19.9,45,0.00,,---,0.00,VWS V14.00,2013-03-13 06:01:00,
2013-03-13 01:02:00,42.8,23.0,29.53,North,357,15.8,19.9,45,0.00,,---,0.00,VWS V14.00,2013-03-13 06:02:00,
2013-03-13 01:03:00,42.8,23.0,29.53,North,353,12.1,19.9,45,0.00,,---,0.00,VWS V14.00,2013-03-13 06:03:00,
2013-03-13 01:04:00,42.8,23.0,29.53,North,353,12.1,15.5,45,0.00,,---,0.00,VWS V14.00,2013-03-13 06:04:00,
2013-03-13 01:05:00,42.8,23.0,29.53,NNW,344,13.1,16.7,45,0.00,,---,0.00,VWS V14.00,2013-03-13 06:05:00,
2013-03-13 01:06:00,42.8,23.0,29.53,North,350,13.1,16.7,45,0.00,,---,0.00,VWS V14.00,2013-03-13 06:06:00,
2013-03-13 01:07:00,42.8,23.0,29.53,North,353,11.4,16.7,45,0.00,,---,0.00,VWS V14.00,2013-03-13 06:07:00,
2013-03-13 01:08:00,42.8,23.0,29.53,North,353,11.4,14.7,45,0.00,,---,0.00,VWS V14.00,2013-03-13 06:08:00,
2013-03-13 01:09:00,42.8,23.0,29.53,North,353,11.4,14.7,45,0.00,,---,0.00,VWS V14.00,2013-03-13 06:09:00,
2013-03-13 01:10:00,42.8,23.0,29.53,North,1,8.1,14.7,45,0.00,,---,0.00,VWS V14.00,2013-03-13 06:10:00,
2013-03-13 01:11:00,42.8,23.0,29.53,North,353,8.1,10.7,45,0.00,,---,0.00,VWS V14.00,2013-03-13 06:11:00,
2013-03-13 01:12:00,42.1,22.8,29.53,North,353,8.1,10.7,46,0.00,,---,0.00,VWS V14.00,2013-03-13 06:12:00,
2013-03-13 01:13:00,41.9,22.6,29.53,North,353,8.1,10.7,46,0.00,,---,0.00,VWS V14.00,2013-03-13 06:13:00,
2013-03-13 01:14:00,41.9,22.6,29.53,NNW,344,8.1,10.7,46,0.00,,---,0.00,VWS V14.00,2013-03-13 06:14:00,
2013-03-13 01:15:00,41.9,22.6,29.53,North,353,8.1,10.7,46,0.00,,---,0.00,VWS V14.00,2013-03-13 06:15:00,
2013-03-13 01:16:00,41.9,22.6,29.53,North,353,9.4,12.3,46,0.00,,---,0.00,VWS V14.00,2013-03-13 06:16:00,
2013-03-13 01:17:00,41.9,22.6,29.53,North,353,9.4,12.3,46,0.00,,---,0.00,VWS V14.00,2013-03-13 06:17:00,
2013-03-13 01:18:00,41.5,22.3,29.56,North,353,9.4,12.3,46,0.00,,---,0.00,VWS V14.00,2013-03-13 06:18:00,
2013-03-13 01:19:00,41.5,22.3,29.56,North,353,9.4,12.3,46,0.00,,---,0.00,VWS V14.00,2013-03-13 06:19:00,
2013-03-13 01:20:00,41.4,22.1,29.56,North,0,6.0,12.3,46,0.00,,---,0.00,VWS V14.00,2013-03-13 06:20:00,
2013-03-13 01:22:00,41.4,22.1,29.56,NNE,26,7.4,9.9,46,0.00,,---,0.00,VWS V14.00,2013-03-13 06:22:00,
2013-03-13 01:23:00,41.4,22.1,29.56,NNE,26,7.4,9.9,46,0.00,,---,0.00,VWS V14.00,2013-03-13 06:23:00,
2013-03-13 01:24:00,41.0,22.3,29.56,NNE,15,12.1,15.5,47,0.00,,---,0.00,VWS V14.00,2013-03-13 06:24:00,
2013-03-13 01:26:00,41.0,22.3,29.56,NNE,15,12.1,15.5,47,0.00,,---,0.00,VWS V14.00,2013-03-13 06:26:00,
2013-03-13 01:27:00,41.0,22.3,29.56,NNE,15,12.1,15.5,47,0.00,,---,0.00,VWS V14.00,2013-03-13 06:27:00,
2013-03-13 01:28:00,41.0,22.3,29.56,NNE,15,12.1,15.5,47,0.00,,---,0.00,VWS V14.00,2013-03-13 06:28:00,
2013-03-13 01:29:00,41.0,22.3,29.56,North,6,5.4,15.5,47,0.00,,---,0.00,VWS V14.00,2013-03-13 06:29:00,
2013-03-13 01:30:00,41.0,22.3,29.56,North,6,5.4,7.4,47,0.00,,---,0.00,VWS V14.00,2013-03-13 06:30:00,
2013-03-13 01:31:00,41.0,22.3,29.56,North,6,5.4,7.4,47,0.00,,---,0.00,VWS V14.00,2013-03-13 06:31:00,
2013-03-13 01:32:00,41.0,22.3,29.56,NNE,25,9.4,12.3,47,0.00,,---,0.00,VWS V14.00,2013-03-13 06:32:00,
2013-03-13 01:33:00,41.0,22.3,29.56,NNE,14,8.1,12.3,47,0.00,,---,0.00,VWS V14.00,2013-03-13 06:33:00,
2013-03-13 01:34:00,41.0,22.3,29.56,North,2,8.1,10.7,47,0.00,,---,0.00,VWS V14.00,2013-03-13 06:34:00,
2013-03-13 01:35:00,41.0,22.3,29.56,North,349,7.4,10.7,47,0.00,,---,0.00,VWS V14.00,2013-03-13 06:35:00,
2013-03-13 01:36:00,40.1,22.0,29.56,NNE,14,8.1,10.7,48,0.00,,---,0.00,VWS V14.00,2013-03-13 06:36:00,
2013-03-13 01:37:00,40.1,22.0,29.56,NNE,14,8.1,10.7,48,0.00,,---,0.00,VWS V14.00,2013-03-13 06:37:00,
2013-03-13 01:38:00,39.9,22.3,29.56,NNW,342,12.1,15.5,49,0.00,,---,0.00,VWS V14.00,2013-03-13 06:38:00,
2013-03-13 01:39:00,39.9,22.3,29.56,North,353,11.4,15.5,49,0.00,,---,0.00,VWS V14.00,2013-03-13 06:39:00,
2013-03-13 01:40:00,40.1,22.5,29.56,North,353,11.4,14.7,49,0.00,,---,0.00,VWS V14.00,2013-03-13 06:40:00,
2013-03-13 01:41:00,40.1,22.5,29.56,North,353,11.4,14.7,49,0.00,,---,0.00,VWS V14.00,2013-03-13 06:41:00,
2013-03-13 01:42:00,40.1,22.5,29.56,North,1,13.1,19.1,49,0.00,,---,0.00,VWS V14.00,2013-03-13 06:42:00,
2013-03-13 01:43:00,39.9,22.3,29.56,North,1,13.1,16.7,49,0.00,,---,0.00,VWS V14.00,2013-03-13 06:43:00,
2013-03-13 01:44:00,40.1,22.5,29.56,North,1,13.1,16.7,49,0.00,,---,0.00,VWS V14.00,2013-03-13 06:44:00,
2013-03-13 01:45:00,39.9,22.3,29.56,North,7,12.4,16.7,49,0.00,,---,0.00,VWS V14.00,2013-03-13 06:45:00,
2013-03-13 01:46:00,39.9,22.3,29.56,North,357,9.4,15.9,49,0.00,,---,0.00,VWS V14.00,2013-03-13 06:46:00,
2013-03-13 01:47:00,39.9,22.3,29.56,North,0,13.1,16.7,49,0.00,,---,0.00,VWS V14.00,2013-03-13 06:47:00,
2013-03-13 01:48:00,39.9,22.3,29.56,North,349,12.1,16.7,49,0.00,,---,0.00,VWS V14.00,2013-03-13 06:48:00,
2013-03-13 01:49:00,39.9,22.3,29.56,NNE,18,12.4,15.9,49,0.00,,---,0.00,VWS V14.00,2013-03-13 06:49:00,
2013-03-13 01:50:00,39.9,22.3,29.56,NNE,18,12.4,15.9,49,0.00,,---,0.00,VWS V14.00,2013-03-13 06:50:00,
2013-03-13 01:51:00,39.9,22.3,29.56,NNE,17,10.1,15.9,49,0.00,,---,0.00,VWS V14.00,2013-03-13 06:51:00,
2013-03-13 01:52:00,39.9,22.3,29.56,NNE,17,10.1,13.1,49,0.00,,---,0.00,VWS V14.00,2013-03-13 06:52:00,
2013-03-13 01:53:00,39.9,22.3,29.56,NNE,17,10.1,13.1,49,0.00,,---,0.00,VWS V14.00,2013-03-13 06:53:00,
2013-03-13 01:54:00,39.9,22.3,29.56,North,0,12.1,15.5,49,0.00,,---,0.00,VWS V14.00,2013-03-13 06:54:00,
2013-03-13 01:55:00,39.9,22.3,29.56,North,0,12.1,15.5,49,0.00,,---,0.00,VWS V14.00,2013-03-13 06:55:00,
2013-03-13 01:56:00,39.9,22.3,29.56,North,1,11.4,15.5,49,0.00,,---,0.00,VWS V14.00,2013-03-13 06:56:00,
2013-03-13 01:57:00,39.9,22.3,29.56,North,1,11.4,14.7,49,0.00,,---,0.00,VWS V14.00,2013-03-13 06:57:00,
2013-03-13 01:58:00,39.9,22.3,29.56,North,0,8.7,14.7,49,0.00,,---,0.00,VWS V14.00,2013-03-13 06:58:00,
2013-03-13 01:59:00,39.9,22.3,29.56,North,0,8.7,11.5,49,0.00,,---,0.00,VWS V14.00,2013-03-13 06:59:00,
2013-03-13 02:00:00,39.9,22.3,29.56,North,357,8.1,11.5,49,0.00,,---,0.00,VWS V14.00,2013-03-13 07:00:00,
2013-03-13 02:01:00,39.9,22.3,29.56,North,357,8.1,10.7,49,0.00,,---,0.00,VWS V14.00,2013-03-13 07:01:00,
2013-03-13 02:02:00,39.9,22.3,29.56,North,357,8.1,10.7,49,0.00,,---,0.00,VWS V14.00,2013-03-13 07:02:00,
2013-03-13 02:03:00,38.8,22.3,29.56,North,357,8.1,10.7,51,0.00,,---,0.00,VWS V14.00,2013-03-13 07:03:00,
2013-03-13 02:04:00,38.8,22.3,29.56,North,357,8.1,10.7,51,0.00,,---,0.00,VWS V14.00,2013-03-13 07:04:00,
2013-03-13 02:05:00,38.8,22.3,29.56,NNW,336,9.4,12.3,51,0.00,,---,0.00,VWS V14.00,2013-03-13 07:05:00,
2013-03-13 02:06:00,38.8,22.3,29.56,North,1,8.7,12.3,51,0.00,,---,0.00,VWS V14.00,2013-03-13 07:06:00,
2013-03-13 02:07:00,38.8,22.3,29.56,NNW,328,6.0,11.5,51,0.00,,---,0.00,VWS V14.00,2013-03-13 07:07:00,
2013-03-13 02:08:00,38.8,22.3,29.56,NNW,348,8.1,10.7,51,0.00,,---,0.00,VWS V14.00,2013-03-13 07:08:00,
2013-03-13 02:09:00,38.7,22.1,29.56,NNW,338,7.4,10.7,51,0.00,,---,0.00,VWS V14.00,2013-03-13 07:09:00,
2013-03-13 02:10:00,38.7,22.1,29.56,NNW,338,7.4,9.9,51,0.00,,---,0.00,VWS V14.00,2013-03-13 07:10:00,
2013-03-13 02:11:00,38.7,22.1,29.56,NNW,338,7.4,9.9,51,0.00,,---,0.00,VWS V14.00,2013-03-13 07:11:00,
2013-03-13 02:12:00,38.5,21.9,29.56,NNW,338,7.4,9.9,51,0.00,,---,0.00,VWS V14.00,2013-03-13 07:12:00,
2013-03-13 02:13:00,38.5,21.9,29.56,NNW,338,7.4,9.9,51,0.00,,---,0.00,VWS V14.00,2013-03-13 07:13:00,
2013-03-13 02:14:00,38.5,21.9,29.56,NNW,338,7.4,9.9,51,0.00,,---,0.00,VWS V14.00,2013-03-13 07:14:00,
2013-03-13 02:15:00,38.5,21.9,29.56,North,2,8.1,10.7,51,0.00,,---,0.00,VWS V14.00,2013-03-13 07:15:00,
2013-03-13 02:16:00,38.5,21.9,29.56,North,3,12.1,15.5,51,0.00,,---,0.00,VWS V14.00,2013-03-13 07:16:00,
2013-03-13 02:17:00,38.5,21.9,29.56,NW,314,9.4,15.5,51,0.00,,---,0.00,VWS V14.00,2013-03-13 07:17:00,
2013-03-13 02:18:00,38.5,21.9,29.56,NNW,327,7.4,12.3,51,0.00,,---,0.00,VWS V14.00,2013-03-13 07:18:00,
2013-03-13 02:19:00,38.5,21.9,29.56,NNW,327,7.4,9.9,51,0.00,,---,0.00,VWS V14.00,2013-03-13 07:19:00,
2013-03-13 02:20:00,38.5,21.9,29.56,NNW,327,7.4,9.9,51,0.00,,---,0.00,VWS V14.00,2013-03-13 07:20:00,
2013-03-13 02:21:00,38.1,22.1,29.56,NNW,327,7.4,9.9,52,0.00,,---,0.00,VWS V14.00,2013-03-13 07:21:00,
2013-03-13 02:22:00,38.1,22.1,29.56,NNW,336,4.0,9.9,52,0.00,,---,0.00,VWS V14.00,2013-03-13 07:22:00,
2013-03-13 02:23:00,38.1,22.1,29.56,NNW,336,4.0,5.8,52,0.00,,---,0.00,VWS V14.00,2013-03-13 07:23:00,
2013-03-13 02:24:00,38.1,22.1,29.56,North,9,8.7,11.5,52,0.00,,---,0.00,VWS V14.00,2013-03-13 07:24:00,
2013-03-13 02:25:00,38.1,22.1,29.56,North,9,8.7,11.5,52,0.00,,---,0.00,VWS V14.00,2013-03-13 07:25:00,
2013-03-13 02:26:00,38.1,22.1,29.56,North,9,8.7,11.5,52,0.00,,---,0.00,VWS V14.00,2013-03-13 07:26:00,
2013-03-13 02:27:00,38.1,22.1,29.56,NNW,327,4.7,6.6,52,0.00,,---,0.00,VWS V14.00,2013-03-13 07:27:00,
2013-03-13 02:28:00,38.1,22.1,29.56,NNW,327,4.7,6.6,52,0.00,,---,0.00,VWS V14.00,2013-03-13 07:28:00,
2013-03-13 02:29:00,38.1,22.1,29.56,NNW,327,4.7,6.6,52,0.00,,---,0.00,VWS V14.00,2013-03-13 07:29:00,
2013-03-13 02:30:00,37.9,21.9,29.56,NNW,327,4.7,6.6,52,0.00,,---,0.00,VWS V14.00,2013-03-13 07:30:00,
2013-03-13 02:31:00,37.9,21.9,29.56,NNW,327,4.7,6.6,52,0.00,,---,0.00,VWS V14.00,2013-03-13 07:31:00,
2013-03-13 02:32:00,37.9,21.9,29.56,NNW,327,4.7,6.6,52,0.00,,---,0.00,VWS V14.00,2013-03-13 07:32:00,
2013-03-13 02:33:00,37.9,21.9,29.56,NNW,327,4.7,6.6,52,0.00,,---,0.00,VWS V14.00,2013-03-13 07:33:00,
2013-03-13 02:34:00,37.9,21.9,29.56,NNW,327,4.7,6.6,52,0.00,,---,0.00,VWS V14.00,2013-03-13 07:34:00,
2013-03-13 02:35:00,37.9,21.9,29.56,North,353,7.4,9.9,52,0.00,,---,0.00,VWS V14.00,2013-03-13 07:35:00,
2013-03-13 02:36:00,37.9,21.9,29.56,North,0,8.7,11.5,52,0.00,,---,0.00,VWS V14.00,2013-03-13 07:36:00,
2013-03-13 02:37:00,37.9,21.9,29.56,North,0,8.7,11.5,52,0.00,,---,0.00,VWS V14.00,2013-03-13 07:37:00,
2013-03-13 02:38:00,37.9,21.9,29.56,North,2,4.0,11.5,52,0.00,,---,0.00,VWS V14.00,2013-03-13 07:38:00,
2013-03-13 02:39:00,37.9,21.9,29.56,NNW,343,0.0,5.8,52,0.00,,---,0.00,VWS V14.00,2013-03-13 07:39:00,
2013-03-13 02:40:00,37.9,21.9,29.56,NNW,338,0.0,1.0,52,0.00,,---,0.00,VWS V14.00,2013-03-13 07:40:00,
2013-03-13 02:41:00,37.9,21.9,29.56,NW,307,6.0,8.2,52,0.00,,---,0.00,VWS V14.00,2013-03-13 07:41:00,
2013-03-13 02:42:00,37.9,21.9,29.56,WNW,301,4.0,5.8,52,0.00,,---,0.00,VWS V14.00,2013-03-13 07:42:00,
2013-03-13 02:43:00,37.9,21.9,29.56,WNW,301,4.0,5.8,52,0.00,,---,0.00,VWS V14.00,2013-03-13 07:43:00,
2013-03-13 02:44:00,37.9,21.9,29.56,WNW,301,4.0,5.8,52,0.00,,---,0.00,VWS V14.00,2013-03-13 07:44:00,
2013-03-13 02:45:00,37.6,21.6,29.56,NW,307,4.7,6.6,52,0.00,,---,0.00,VWS V14.00,2013-03-13 07:45:00,
2013-03-13 02:46:00,37.6,21.6,29.56,NNW,331,8.1,10.7,52,0.00,,---,0.00,VWS V14.00,2013-03-13 07:46:00,
2013-03-13 02:47:00,37.6,21.6,29.56,NNW,339,0.0,1.0,52,0.00,,---,0.00,VWS V14.00,2013-03-13 07:47:00,
2013-03-13 02:48:00,37.6,21.6,29.56,NNW,339,0.0,1.0,52,0.00,,---,0.00,VWS V14.00,2013-03-13 07:48:00,
2013-03-13 02:49:00,37.6,21.6,29.56,North,357,0.0,1.0,52,0.00,,---,0.00,VWS V14.00,2013-03-13 07:49:00,
2013-03-13 02:50:00,37.6,21.6,29.56,North,357,0.0,1.0,52,0.00,,---,0.00,VWS V14.00,2013-03-13 07:50:00,
2013-03-13 02:51:00,37.6,21.6,29.56,North,353,0.0,1.0,52,0.00,,---,0.00,VWS V14.00,2013-03-13 07:51:00,
2013-03-13 02:52:00,37.6,21.6,29.56,North,353,0.0,1.0,52,0.00,,---,0.00,VWS V14.00,2013-03-13 07:52:00,
2013-03-13 02:53:00,37.6,21.6,29.56,North,11,4.7,6.6,52,0.00,,---,0.00,VWS V14.00,2013-03-13 07:53:00,
2013-03-13 02:54:00,37.6,21.6,29.56,NNW,341,4.7,6.6,52,0.00,,---,0.00,VWS V14.00,2013-03-13 07:54:00,
2013-03-13 02:55:00,37.6,21.6,29.56,NNW,341,4.7,6.6,52,0.00,,---,0.00,VWS V14.00,2013-03-13 07:55:00,
2013-03-13 02:56:00,37.6,21.6,29.56,NNW,341,4.7,6.6,52,0.00,,---,0.00,VWS V14.00,2013-03-13 07:56:00,
2013-03-13 02:57:00,37.2,21.7,29.56,NNW,341,4.7,6.6,53,0.00,,---,0.00,VWS V14.00,2013-03-13 07:57:00,
2013-03-13 02:58:00,37.2,21.7,29.56,NNW,341,4.7,6.6,53,0.00,,---,0.00,VWS V14.00,2013-03-13 07:58:00,
2013-03-13 02:59:00,37.2,21.7,29.56,WNW,288,4.7,6.6,53,0.00,,---,0.00,VWS V14.00,2013-03-13 07:59:00,
2013-03-13 03:00:00,37.2,21.7,29.56,NW,325,11.4,14.7,53,0.00,,---,0.00,VWS V14.00,2013-03-13 08:00:00,
2013-03-13 03:01:00,37.2,21.7,29.56,NW,325,11.4,14.7,53,0.00,,---,0.00,VWS V14.00,2013-03-13 08:01:00,
2013-03-13 03:02:00,37.2,21.7,29.56,NNW,346,12.1,15.5,53,0.00,,---,0.00,VWS V14.00,2013-03-13 08:02:00,
2013-03-13 03:03:00,37.2,21.7,29.56,NNW,346,12.1,15.5,53,0.00,,---,0.00,VWS V14.00,2013-03-13 08:03:00,
2013-03-13 03:04:00,37.4,21.9,29.56,WNW,293,6.0,15.9,53,0.00,,---,0.00,VWS V14.00,2013-03-13 08:04:00,
2013-03-13 03:05:00,37.4,21.9,29.56,NNW,344,13.1,16.7,53,0.00,,---,0.00,VWS V14.00,2013-03-13 08:05:00,
2013-03-13 03:06:00,37.4,21.9,29.56,NNW,348,15.1,19.1,53,0.00,,---,0.00,VWS V14.00,2013-03-13 08:06:00,
2013-03-13 03:07:00,37.4,21.4,29.56,NNW,332,8.7,19.1,52,0.00,,---,0.00,VWS V14.00,2013-03-13 08:07:00,
2013-03-13 03:08:00,37.4,21.4,29.56,NNW,332,8.7,11.5,52,0.00,,---,0.00,VWS V14.00,2013-03-13 08:08:00,
2013-03-13 03:09:00,37.4,21.4,29.56,NW,305,11.4,14.7,52,0.00,,---,0.00,VWS V14.00,2013-03-13 08:09:00,
2013-03-13 03:10:00,37.4,21.4,29.56,NW,305,11.4,14.7,52,0.00,,---,0.00,VWS V14.00,2013-03-13 08:10:00,
2013-03-13 03:11:00,37.4,21.4,29.56,WNW,302,6.0,14.7,52,0.00,,---,0.00,VWS V14.00,2013-03-13 08:11:00,
2013-03-13 03:12:00,37.4,21.4,29.56,WNW,302,6.0,8.2,52,0.00,,---,0.00,VWS V14.00,2013-03-13 08:12:00,
2013-03-13 03:13:00,37.4,21.4,29.56,North,350,4.0,9.9,52,0.00,,---,0.00,VWS V14.00,2013-03-13 08:13:00,
2013-03-13 03:14:00,37.4,21.4,29.56,North,350,4.0,5.8,52,0.00,,---,0.00,VWS V14.00,2013-03-13 08:14:00,
2013-03-13 03:15:00,37.4,21.4,29.56,North,357,8.7,11.5,52,0.00,,---,0.00,VWS V14.00,2013-03-13 08:15:00,
2013-03-13 03:16:00,37.2,21.2,29.56,North,353,11.4,15.9,52,0.00,,---,0.00,VWS V14.00,2013-03-13 08:16:00,
2013-03-13 03:17:00,37.2,21.2,29.56,North,0,8.1,14.7,52,0.00,,---,0.00,VWS V14.00,2013-03-13 08:17:00,
2013-03-13 03:18:00,37.2,21.2,29.56,North,0,8.1,10.7,52,0.00,,---,0.00,VWS V14.00,2013-03-13 08:18:00,
2013-03-13 03:19:00,37.2,21.2,29.56,North,350,12.1,15.5,52,0.00,,---,0.00,VWS V14.00,2013-03-13 08:19:00,
2013-03-13 03:20:00,37.2,21.2,29.56,NNW,338,8.1,15.5,52,0.00,,---,0.00,VWS V14.00,2013-03-13 08:20:00,
2013-03-13 03:21:00,37.2,21.2,29.56,NNW,338,8.1,10.7,52,0.00,,---,0.00,VWS V14.00,2013-03-13 08:21:00,
2013-03-13 03:22:00,37.0,21.1,29.56,North,357,5.4,10.7,52,0.00,,---,0.00,VWS V14.00,2013-03-13 08:22:00,
2013-03-13 03:23:00,37.0,21.1,29.56,NNW,338,0.0,7.4,52,0.00,,---,0.00,VWS V14.00,2013-03-13 08:23:00,
2013-03-13 03:24:00,37.0,21.1,29.56,NW,318,8.7,11.5,52,0.00,,---,0.00,VWS V14.00,2013-03-13 08:24:00,
2013-03-13 03:25:00,37.0,21.1,29.56,NW,318,8.7,11.5,52,0.00,,---,0.00,VWS V14.00,2013-03-13 08:25:00,
2013-03-13 03:28:00,37.0,21.1,29.56,WNW,303,6.0,8.2,52,0.00,,---,0.00,VWS V14.00,2013-03-13 08:28:00,
2013-03-13 03:35:00,36.9,20.9,29.56,NNW,342,8.1,10.7,52,0.00,,---,0.00,VWS V14.00,2013-03-13 08:35:00,
2013-03-13 03:40:00,36.9,20.4,29.56,NNW,333,7.4,16.7,51,0.00,,---,0.00,VWS V14.00,2013-03-13 08:40:00,
2013-03-13 03:45:00,36.7,20.3,29.56,West,274,8.7,15.5,51,0.00,,---,0.00,VWS V14.00,2013-03-13 08:45:00,
2013-03-13 03:50:00,36.5,20.1,29.56,North,353,8.7,12.3,51,0.00,,---,0.00,VWS V14.00,2013-03-13 08:50:00,
2013-03-13 03:55:00,36.3,19.9,29.56,North,357,16.4,20.7,51,0.00,,---,0.00,VWS V14.00,2013-03-13 08:55:00,
2013-03-13 04:00:00,36.1,19.8,29.56,WNW,303,11.4,14.7,51,0.00,,---,0.00,VWS V14.00,2013-03-13 09:00:00,
2013-03-13 04:05:00,36.1,19.8,29.56,WNW,303,5.4,7.4,51,0.00,,---,0.00,VWS V14.00,2013-03-13 09:05:00,
2013-03-13 04:10:00,36.1,19.8,29.56,WNW,294,12.1,19.1,51,0.00,,---,0.00,VWS V14.00,2013-03-13 09:10:00,
2013-03-13 04:15:00,36.0,19.6,29.56,WNW,294,8.7,12.3,51,0.00,,---,0.00,VWS V14.00,2013-03-13 09:15:00,
2013-03-13 04:20:00,35.8,19.4,29.56,North,353,13.1,16.7,51,0.00,,---,0.00,VWS V14.00,2013-03-13 09:20:00,
2013-03-13 04:25:00,35.6,19.3,29.56,NW,320,12.1,15.5,51,0.00,,---,0.00,VWS V14.00,2013-03-13 09:25:00,
2013-03-13 04:30:00,35.6,19.3,29.56,NW,321,8.1,12.3,51,0.00,,---,0.00,VWS V14.00,2013-03-13 09:30:00,
2013-03-13 04:35:00,35.4,19.6,29.56,NW,322,7.4,14.7,52,0.00,,---,0.00,VWS V14.00,2013-03-13 09:35:00,
2013-03-13 04:40:00,35.4,19.6,29.56,WNW,292,8.1,14.7,52,0.00,,---,0.00,VWS V14.00,2013-03-13 09:40:00,
2013-03-13 04:45:00,35.4,19.6,29.56,WNW,299,6.0,12.3,52,0.00,,---,0.00,VWS V14.00,2013-03-13 09:45:00,
2013-03-13 04:50:00,35.4,19.6,29.59,NW,326,9.4,15.9,52,0.00,,---,0.00,VWS V14.00,2013-03-13 09:50:00,
2013-03-13 04:55:00,35.2,19.4,29.59,NW,312,8.1,10.7,52,0.00,,---,0.00,VWS V14.00,2013-03-13 09:55:00,
2013-03-13 05:00:00,35.1,19.2,29.59,NW,320,8.1,11.5,52,0.00,,---,0.00,VWS V14.00,2013-03-13 10:00:00,
2013-03-13 05:05:00,35.1,19.2,29.59,WNW,302,7.4,14.7,52,0.00,,---,0.00,VWS V14.00,2013-03-13 10:05:00,
2013-03-13 05:10:00,35.1,19.7,29.59,NNW,329,5.4,7.4,53,0.00,,---,0.00,VWS V14.00,2013-03-13 10:10:00,
2013-03-13 05:15:00,35.1,19.7,29.59,NNW,335,11.4,14.7,53,0.00,,---,0.00,VWS V14.00,2013-03-13 10:15:00,
2013-03-13 05:20:00,35.1,19.7,29.59,WNW,283,8.1,10.7,53,0.00,,---,0.00,VWS V14.00,2013-03-13 10:20:00,
2013-03-13 05:25:00,35.1,19.7,29.59,NW,313,6.0,8.2,53,0.00,,---,0.00,VWS V14.00,2013-03-13 10:25:00,
2013-03-13 05:30:00,34.9,19.5,29.59,NW,319,6.0,8.2,53,0.00,,---,0.00,VWS V14.00,2013-03-13 10:30:00,
2013-03-13 05:35:00,34.9,19.5,29.59,NW,313,4.0,5.8,53,0.00,,---,0.00,VWS V14.00,2013-03-13 10:35:00,
2013-03-13 05:40:00,34.7,19.3,29.59,NW,317,8.1,10.7,53,0.00,,---,0.00,VWS V14.00,2013-03-13 10:40:00,
2013-03-13 05:45:00,34.9,19.5,29.59,NNW,342,11.4,14.7,53,0.00,,---,0.00,VWS V14.00,2013-03-13 10:45:00,
2013-03-13 05:50:00,34.9,19.5,29.59,WNW,300,6.0,8.2,53,0.00,,---,0.00,VWS V14.00,2013-03-13 10:50:00,
2013-03-13 05:55:00,34.9,19.5,29.59,NW,313,8.7,11.5,53,0.00,,---,0.00,VWS V14.00,2013-03-13 10:55:00,
2013-03-13 06:00:00,34.7,18.9,29.59,WNW,285,5.4,7.4,52,0.00,,---,0.00,VWS V14.00,2013-03-13 11:00:00,
2013-03-13 06:05:00,34.7,18.9,29.59,NW,326,4.0,5.8,52,0.00,,---,0.00,VWS V14.00,2013-03-13 11:05:00,
2013-03-13 06:10:00,34.5,19.2,29.59,NW,309,7.4,10.7,53,0.00,,---,0.00,VWS V14.00,2013-03-13 11:10:00,
2013-03-13 06:15:00,34.5,18.7,29.59,NW,317,4.0,6.6,52,0.00,,---,0.00,VWS V14.00,2013-03-13 11:15:00,
2013-03-13 06:20:00,34.3,18.5,29.62,North,0,8.7,11.5,52,0.00,,---,0.00,VWS V14.00,2013-03-13 11:20:00,
2013-03-13 06:25:00,34.3,18.5,29.62,NNW,328,5.4,7.4,52,0.00,,---,0.00,VWS V14.00,2013-03-13 11:25:00,
2013-03-13 06:30:00,34.2,18.4,29.62,North,9,3.4,5.0,52,0.00,,---,0.00,VWS V14.00,2013-03-13 11:30:00,
2013-03-13 06:35:00,33.8,17.6,29.62,NW,311,7.4,9.9,51,0.00,,---,0.00,VWS V14.00,2013-03-13 11:35:00,
2013-03-13 06:40:00,33.8,17.1,29.62,NW,318,4.7,6.6,50,0.00,,---,0.00,VWS V14.00,2013-03-13 11:40:00,
2013-03-13 06:45:00,33.8,17.1,29.62,WNW,300,12.1,15.5,50,0.00,,---,0.00,VWS V14.00,2013-03-13 11:45:00,
2013-03-13 06:50:00,33.8,16.7,29.62,NW,314,8.7,11.5,49,0.00,,---,0.00,VWS V14.00,2013-03-13 11:50:00,
2013-03-13 06:55:00,33.6,16.5,29.62,WNW,299,8.7,11.5,49,0.00,,---,0.00,VWS V14.00,2013-03-13 11:55:00,
2013-03-13 07:00:00,33.4,16.4,29.62,NW,306,4.0,10.7,49,0.00,,---,0.00,VWS V14.00,2013-03-13 12:00:00,
2013-03-13 07:05:00,33.3,16.6,29.62,WNW,291,4.7,11.5,50,0.00,,---,0.00,VWS V14.00,2013-03-13 12:05:00,
2013-03-13 07:10:00,33.1,16.5,29.62,WNW,297,5.4,7.4,50,0.00,,---,0.00,VWS V14.00,2013-03-13 12:10:00,
2013-03-13 07:15:00,32.9,16.3,29.62,NW,323,8.7,11.5,50,0.00,,---,0.00,VWS V14.00,2013-03-13 12:15:00,
2013-03-13 07:20:00,32.9,16.3,29.62,WNW,296,4.7,6.6,50,0.00,,---,0.00,VWS V14.00,2013-03-13 12:20:00,
2013-03-13 07:25:00,32.7,16.1,29.62,WNW,285,4.7,10.7,50,0.00,,---,0.00,VWS V14.00,2013-03-13 12:25:00,
2013-03-13 07:30:00,32.7,16.1,29.62,WNW,301,4.0,8.2,50,0.00,,---,0.00,VWS V14.00,2013-03-13 12:30:00,
2013-03-13 07:35:00,32.7,16.6,29.65,NW,307,4.0,10.7,51,0.00,,---,0.00,VWS V14.00,2013-03-13 12:35:00,
2013-03-13 07:40:00,32.7,16.6,29.65,WNW,299,4.7,6.6,51,0.00,,---,0.00,VWS V14.00,2013-03-13 12:40:00,
2013-03-13 07:45:00,32.9,16.8,29.65,NW,317,5.4,9.9,51,0.00,,---,0.00,VWS V14.00,2013-03-13 12:45:00,
2013-03-13 07:50:00,32.9,16.8,29.65,NW,314,0.0,10.7,51,0.00,,---,0.00,VWS V14.00,2013-03-13 12:50:00,
2013-03-13 07:55:00,33.1,16.9,29.65,NW,323,4.7,9.9,51,0.00,,---,0.00,VWS V14.00,2013-03-13 12:55:00,
2013-03-13 08:00:00,33.3,17.1,29.65,WNW,301,5.4,8.2,51,0.00,,---,0.00,VWS V14.00,2013-03-13 13:00:00,
2013-03-13 08:05:00,33.4,17.7,29.65,NW,310,4.0,8.2,52,0.00,,---,0.00,VWS V14.00,2013-03-13 13:05:00,
2013-03-13 08:10:00,33.6,17.4,29.65,NW,325,6.0,8.2,51,0.00,,---,0.00,VWS V14.00,2013-03-13 13:10:00,
2013-03-13 08:15:00,33.8,17.6,29.65,NW,306,5.4,12.3,51,0.00,,---,0.00,VWS V14.00,2013-03-13 13:15:00,
2013-03-13 08:20:00,34.2,17.9,29.65,North,357,8.7,14.7,51,0.00,,---,0.00,VWS V14.00,2013-03-13 13:20:00,
2013-03-13 08:25:00,34.3,18.1,29.65,North,4,9.4,19.9,51,0.00,,---,0.00,VWS V14.00,2013-03-13 13:25:00,
2013-03-13 08:30:00,34.3,18.1,29.65,NNW,348,15.1,19.9,51,0.00,,---,0.00,VWS V14.00,2013-03-13 13:30:00,
2013-03-13 08:35:00,34.3,18.5,29.65,North,353,16.4,28.0,52,0.00,,---,0.00,VWS V14.00,2013-03-13 13:35:00,
2013-03-13 08:40:00,34.5,18.7,29.65,North,357,17.8,24.8,52,0.00,,---,0.00,VWS V14.00,2013-03-13 13:40:00,
2013-03-13 08:45:00,34.3,18.5,29.65,North,5,14.4,30.4,52,0.00,,---,0.00,VWS V14.00,2013-03-13 13:45:00,
2013-03-13 08:50:00,34.5,18.7,29.68,WSW,256,8.1,15.5,52,0.00,,---,0.00,VWS V14.00,2013-03-13 13:50:00,
2013-03-13 08:55:00,34.9,19.5,29.68,NW,323,6.0,23.1,53,0.00,,---,0.00,VWS V14.00,2013-03-13 13:55:00,
2013-03-13 09:00:00,34.9,19.1,29.68,NW,314,12.4,16.7,52,0.00,,---,0.00,VWS V14.00,2013-03-13 14:00:00,
2013-03-13 09:05:00,34.5,18.7,29.68,WSW,251,9.4,18.3,52,0.00,,---,0.00,VWS V14.00,2013-03-13 14:05:00,
2013-03-13 09:10:00,34.5,18.7,29.68,NW,319,13.8,17.5,52,0.00,,---,0.00,VWS V14.00,2013-03-13 14:10:00,
2013-03-13 09:15:00,34.5,18.7,29.68,WNW,292,9.4,19.9,52,0.00,,---,0.00,VWS V14.00,2013-03-13 14:15:00,
2013-03-13 09:20:00,34.2,18.4,29.68,NW,319,12.1,18.3,52,0.00,,---,0.00,VWS V14.00,2013-03-13 14:20:00,
2013-03-13 09:25:00,34.3,18.5,29.68,WNW,296,12.1,15.9,52,0.00,,---,0.00,VWS V14.00,2013-03-13 14:25:00,
2013-03-13 09:30:00,34.7,18.9,29.68,NNW,345,16.4,23.1,52,0.00,,---,0.00,VWS V14.00,2013-03-13 14:30:00,
2013-03-13 09:35:00,34.7,18.9,29.68,North,350,19.1,24.0,52,0.00,,---,0.00,VWS V14.00,2013-03-13 14:35:00,
2013-03-13 09:40:00,35.2,19.4,29.68,North,0,11.4,19.1,52,0.00,,---,0.00,VWS V14.00,2013-03-13 14:40:00,
2013-03-13 09:45:00,35.4,19.1,29.68,North,2,29.5,36.4,51,0.00,,---,0.00,VWS V14.00,2013-03-13 14:45:00,
2013-03-13 09:50:00,35.4,18.6,29.71,North,0,12.4,19.9,50,0.00,,---,0.00,VWS V14.00,2013-03-13 14:50:00,
2013-03-13 09:55:00,35.6,18.3,29.71,West,278,13.1,26.4,49,0.00,,---,0.00,VWS V14.00,2013-03-13 14:55:00,
2013-03-13 10:00:00,35.4,17.7,29.71,NW,323,8.1,19.1,48,0.00,,---,0.00,VWS V14.00,2013-03-13 15:00:00,
2013-03-13 10:05:00,35.4,17.2,29.71,North,2,12.4,20.7,47,0.00,,---,0.00,VWS V14.00,2013-03-13 15:05:00,
2013-03-13 10:10:00,35.2,16.5,29.71,North,4,23.2,28.8,46,0.00,,---,0.00,VWS V14.00,2013-03-13 15:10:00,
2013-03-13 10:15:00,35.1,16.4,29.71,North,353,12.1,28.8,46,0.00,,---,0.00,VWS V14.00,2013-03-13 15:15:00,
2013-03-13 10:20:00,35.4,16.7,29.71,NNW,345,16.4,20.7,46,0.00,,---,0.00,VWS V14.00,2013-03-13 15:20:00,
2013-03-13 10:25:00,35.6,16.9,29.71,North,1,26.2,32.4,46,0.00,,---,0.00,VWS V14.00,2013-03-13 15:25:00,
2013-03-13 10:30:00,35.8,17.0,29.71,North,353,16.4,20.7,46,0.00,,---,0.00,VWS V14.00,2013-03-13 15:30:00,
2013-03-13 10:35:00,36.0,16.7,29.71,NNW,338,15.1,28.0,45,0.00,,---,0.00,VWS V14.00,2013-03-13 15:35:00,
2013-03-13 10:40:00,36.3,17.0,29.71,North,357,13.1,19.1,45,0.00,,---,0.00,VWS V14.00,2013-03-13 15:40:00,
2013-03-13 10:45:00,35.8,16.0,29.71,WNW,288,10.1,14.7,44,0.00,,---,0.00,VWS V14.00,2013-03-13 15:45:00,
2013-03-13 10:50:00,36.1,16.4,29.71,NNW,335,17.1,22.3,44,0.00,,---,0.00,VWS V14.00,2013-03-13 15:50:00,
2013-03-13 10:55:00,36.5,16.7,29.71,NNW,338,12.4,32.4,44,0.00,,---,0.00,VWS V14.00,2013-03-13 15:55:00,
2013-03-13 11:00:00,36.1,16.4,29.71,NNW,330,15.8,28.8,44,0.00,,---,0.00,VWS V14.00,2013-03-13 16:00:00,
2013-03-13 11:05:00,36.1,16.4,29.71,WNW,296,5.4,13.1,44,0.00,,---,0.00,VWS V14.00,2013-03-13 16:05:00,
2013-03-13 11:10:00,36.1,15.8,29.71,NW,318,16.4,31.2,43,0.00,,---,0.00,VWS V14.00,2013-03-13 16:10:00,
2013-03-13 11:15:00,36.3,16.0,29.71,West,274,19.1,24.0,43,0.00,,---,0.00,VWS V14.00,2013-03-13 16:15:00,
2013-03-13 11:20:00,37.0,16.6,29.71,NW,305,10.7,13.9,43,0.00,,---,0.00,VWS V14.00,2013-03-13 16:20:00,
2013-03-13 11:25:00,37.2,16.8,29.71,NW,319,7.4,20.7,43,0.00,,---,0.00,VWS V14.00,2013-03-13 16:25:00,
2013-03-13 11:30:00,37.4,17.0,29.71,NW,320,16.4,24.0,43,0.00,,---,0.00,VWS V14.00,2013-03-13 16:30:00,
2013-03-13 11:35:00,36.9,16.5,29.74,North,357,12.1,21.5,43,0.00,,---,0.00,VWS V14.00,2013-03-13 16:35:00,
2013-03-13 11:40:00,38.3,17.8,29.74,NW,316,10.7,13.9,43,0.00,,---,0.00,VWS V14.00,2013-03-13 16:40:00,
2013-03-13 11:45:00,38.1,17.6,29.74,WNW,283,15.1,19.1,43,0.00,,---,0.00,VWS V14.00,2013-03-13 16:45:00,
2013-03-13 11:50:00,37.8,16.8,29.74,West,278,15.1,19.1,42,0.00,,---,0.00,VWS V14.00,2013-03-13 16:50:00,
2013-03-13 11:55:00,37.4,16.4,29.74,North,8,12.1,19.9,42,0.00,,---,0.00,VWS V14.00,2013-03-13 16:55:00,
2013-03-13 12:00:00,37.9,16.9,29.74,WNW,302,13.1,16.7,42,0.00,,---,0.00,VWS V14.00,2013-03-13 17:00:00,
2013-03-13 12:05:00,37.9,16.9,29.74,NW,306,15.1,23.1,42,0.00,,---,0.00,VWS V14.00,2013-03-13 17:05:00,
2013-03-13 12:10:00,38.1,17.1,29.74,NNE,12,15.8,19.9,42,0.00,,---,0.00,VWS V14.00,2013-03-13 17:10:00,
2013-03-13 12:15:00,38.1,17.1,29.74,WNW,303,12.4,32.4,42,0.00,,---,0.00,VWS V14.00,2013-03-13 17:15:00,
2013-03-13 12:20:00,38.7,17.6,29.74,West,270,13.1,16.7,42,0.00,,---,0.00,VWS V14.00,2013-03-13 17:20:00,
2013-03-13 12:25:00,39.9,18.7,29.74,WNW,300,12.1,19.9,42,0.00,,---,0.00,VWS V14.00,2013-03-13 17:25:00,
2013-03-13 12:30:00,39.4,18.2,29.74,West,259,8.1,15.5,42,0.00,,---,0.00,VWS V14.00,2013-03-13 17:30:00,
2013-03-13 12:35:00,38.7,17.6,29.74,WNW,288,9.4,27.2,42,0.00,,---,0.00,VWS V14.00,2013-03-13 17:35:00,
2013-03-13 12:40:00,39.2,17.5,29.74,West,269,9.4,12.3,41,0.00,,---,0.00,VWS V14.00,2013-03-13 17:40:00,
2013-03-13 12:45:00,39.7,18.5,29.74,WNW,291,9.4,12.3,42,0.00,,---,0.00,VWS V14.00,2013-03-13 17:45:00,
2013-03-13 12:50:00,40.1,18.3,29.74,WNW,300,8.7,28.0,41,0.00,,---,0.00,VWS V14.00,2013-03-13 17:50:00,
2013-03-13 12:55:00,39.6,17.8,29.74,NW,314,15.1,19.1,41,0.00,,---,0.00,VWS V14.00,2013-03-13 17:55:00,
2013-03-13 13:00:00,40.3,18.5,29.74,West,281,8.7,20.7,41,0.00,,---,0.00,VWS V14.00,2013-03-13 18:00:00,
2013-03-13 13:05:00,40.6,18.8,29.74,NW,314,12.1,15.5,41,0.00,,---,0.00,VWS V14.00,2013-03-13 18:05:00,
2013-03-13 13:10:00,39.4,17.7,29.74,WNW,300,11.4,24.8,41,0.00,,---,0.00,VWS V14.00,2013-03-13 18:10:00,
2013-03-13 13:15:00,39.7,18.0,29.74,West,266,8.7,15.5,41,0.00,,---,0.00,VWS V14.00,2013-03-13 18:15:00,
2013-03-13 13:20:00,40.1,18.3,29.74,NNW,335,13.1,31.6,41,0.00,,---,0.00,VWS V14.00,2013-03-13 18:20:00,
2013-03-13 13:25:00,40.3,18.5,29.74,WNW,302,8.7,11.5,41,0.00,,---,0.00,VWS V14.00,2013-03-13 18:25:00,
2013-03-13 13:30:00,40.8,19.0,29.74,NW,304,8.1,15.9,41,0.00,,---,0.00,VWS V14.00,2013-03-13 18:30:00,
2013-03-13 13:35:00,40.3,18.5,29.74,North,357,8.7,14.7,41,0.00,,---,0.00,VWS V14.00,2013-03-13 18:35:00,
2013-03-13 13:40:00,41.0,19.1,29.74,WNW,297,8.1,11.5,41,0.00,,---,0.00,VWS V14.00,2013-03-13 18:40:00,
2013-03-13 13:45:00,40.5,18.6,29.74,WNW,295,8.7,19.9,41,0.00,,---,0.00,VWS V14.00,2013-03-13 18:45:00,
2013-03-13 13:50:00,40.6,18.8,29.74,NNE,18,19.1,24.8,41,0.00,,---,0.00,VWS V14.00,2013-03-13 18:50:00,
2013-03-13 13:55:00,39.9,18.1,29.74,NNW,331,16.4,22.3,41,0.00,,---,0.00,VWS V14.00,2013-03-13 18:55:00,
2013-03-13 14:00:00,40.8,19.0,29.74,North,0,12.4,23.1,41,0.00,,---,0.00,VWS V14.00,2013-03-13 19:00:00,
2013-03-13 14:05:00,41.9,19.9,29.74,North,357,9.4,14.7,41,0.00,,---,0.00,VWS V14.00,2013-03-13 19:05:00,
2013-03-13 14:10:00,41.9,19.9,29.74,NW,312,8.7,15.9,41,0.00,,---,0.00,VWS V14.00,2013-03-13 19:10:00,
2013-03-13 14:15:00,42.6,20.6,29.74,NNW,345,18.5,24.0,41,0.00,,---,0.00,VWS V14.00,2013-03-13 19:15:00,
2013-03-13 14:20:00,40.6,18.8,29.74,WNW,296,12.4,15.9,41,0.00,,---,0.00,VWS V14.00,2013-03-13 19:20:00,
2013-03-13 14:25:00,41.2,18.7,29.74,North,357,4.7,11.5,40,0.00,,---,0.00,VWS V14.00,2013-03-13 19:25:00,
2013-03-13 14:30:00,41.9,19.4,29.74,North,353,15.1,19.1,40,0.00,,---,0.00,VWS V14.00,2013-03-13 19:30:00,
2013-03-13 14:35:00,42.1,19.5,29.71,WNW,283,8.7,19.1,40,0.00,,---,0.00,VWS V14.00,2013-03-13 19:35:00,
2013-03-13 14:40:00,41.5,19.0,29.71,West,275,9.4,20.7,40,0.00,,---,0.00,VWS V14.00,2013-03-13 19:40:00,
2013-03-13 14:45:00,43.2,20.5,29.71,North,4,19.8,24.8,40,0.00,,---,0.00,VWS V14.00,2013-03-13 19:45:00,
2013-03-13 14:50:00,42.8,20.2,29.71,NW,315,8.7,15.5,40,0.00,,---,0.00,VWS V14.00,2013-03-13 19:50:00,
2013-03-13 14:55:00,43.0,20.3,29.71,NW,314,8.1,19.9,40,0.00,,---,0.00,VWS V14.00,2013-03-13 19:55:00,
2013-03-13 15:00:00,43.3,20.6,29.71,WSW,246,13.1,16.7,40,0.00,,---,0.00,VWS V14.00,2013-03-13 20:00:00,
2013-03-13 15:05:00,42.4,19.8,29.71,NNW,345,15.1,22.3,40,0.00,,---,0.00,VWS V14.00,2013-03-13 20:05:00,
2013-03-13 15:10:00,42.8,20.2,29.71,NW,325,11.4,15.9,40,0.00,,---,0.00,VWS V14.00,2013-03-13 20:10:00,
2013-03-13 15:15:00,43.0,20.3,29.71,NW,321,9.4,18.3,40,0.00,,---,0.00,VWS V14.00,2013-03-13 20:15:00,
2013-03-13 15:20:00,43.0,20.3,29.71,NNW,337,8.7,20.7,40,0.00,,---,0.00,VWS V14.00,2013-03-13 20:20:00,
2013-03-13 15:25:00,42.3,19.7,29.71,NNW,339,12.1,15.5,40,0.00,,---,0.00,VWS V14.00,2013-03-13 20:25:00,
2013-03-13 15:30:00,43.0,20.3,29.71,North,3,12.4,19.1,40,0.00,,---,0.00,VWS V14.00,2013-03-13 20:30:00,
2013-03-13 15:35:00,43.3,20.6,29.74,NW,308,8.7,19.9,40,0.00,,---,0.00,VWS V14.00,2013-03-13 20:35:00,
2013-03-13 15:55:00,43.0,20.3,29.71,NNW,345,7.4,24.0,40,0.00,,---,0.00,VWS V14.00,2013-03-13 20:55:00,
2013-03-13 16:00:00,42.3,19.1,29.71,NW,323,12.1,15.5,39,0.00,,---,0.00,VWS V14.00,2013-03-13 21:00:00,
2013-03-13 16:05:00,42.4,19.2,29.74,NW,313,12.4,18.3,39,0.00,,---,0.00,VWS V14.00,2013-03-13 21:05:00,
2013-03-13 16:10:00,43.0,19.7,29.74,WNW,285,8.7,11.5,39,0.00,,---,0.00,VWS V14.00,2013-03-13 21:10:00,
2013-03-13 16:15:00,43.7,21.0,29.74,WNW,302,13.1,16.7,40,0.00,,---,0.00,VWS V14.00,2013-03-13 21:15:00,
2013-03-13 16:20:00,43.2,19.9,29.74,NNW,344,12.4,19.1,39,0.00,,---,0.00,VWS V14.00,2013-03-13 21:20:00,
2013-03-13 16:25:00,43.0,19.1,29.74,North,0,8.7,13.1,38,0.00,,---,0.00,VWS V14.00,2013-03-13 21:25:00,
2013-03-13 16:30:00,43.2,19.9,29.74,North,350,13.1,16.7,39,0.00,,---,0.00,VWS V14.00,2013-03-13 21:30:00,
2013-03-13 16:35:00,43.5,20.2,29.74,North,3,11.4,14.7,39,0.00,,---,0.00,VWS V14.00,2013-03-13 21:35:00,
2013-03-13 16:40:00,43.7,20.4,29.74,NW,308,11.4,18.3,39,0.00,,---,0.00,VWS V14.00,2013-03-13 21:40:00,
2013-03-13 16:45:00,43.9,20.5,29.74,WNW,298,10.7,14.7,39,0.00,,---,0.00,VWS V14.00,2013-03-13 21:45:00,
2013-03-13 16:50:00,43.7,19.8,29.74,NNW,342,12.4,15.9,38,0.00,,---,0.00,VWS V14.00,2013-03-13 21:50:00,
2013-03-13 16:55:00,43.9,20.5,29.74,North,2,14.4,18.3,39,0.00,,---,0.00,VWS V14.00,2013-03-13 21:55:00,
2013-03-13 17:00:00,43.7,19.8,29.74,NW,320,4.7,8.2,38,0.00,,---,0.00,VWS V14.00,2013-03-13 22:00:00,
2013-03-13 17:05:00,43.5,19.6,29.74,WNW,301,12.1,15.5,38,0.00,,---,0.00,VWS V14.00,2013-03-13 22:05:00,
2013-03-13 17:10:00,43.5,19.6,29.74,NNW,341,11.4,14.7,38,0.00,,---,0.00,VWS V14.00,2013-03-13 22:10:00,
2013-03-13 17:15:00,43.3,19.5,29.74,North,357,19.8,24.8,38,0.00,,---,0.00,VWS V14.00,2013-03-13 22:15:00,
2013-03-13 17:20:00,43.0,19.1,29.74,NNW,340,14.4,23.1,38,0.00,,---,0.00,VWS V14.00,2013-03-13 22:20:00,
2013-03-13 17:25:00,43.0,19.1,29.74,NNW,333,12.1,15.5,38,0.00,,---,0.00,VWS V14.00,2013-03-13 22:25:00,
2013-03-13 17:30:00,43.0,19.1,29.74,WNW,292,8.7,19.9,38,0.00,,---,0.00,VWS V14.00,2013-03-13 22:30:00,
2013-03-13 17:35:00,43.2,19.3,29.74,NW,308,12.4,15.9,38,0.00,,---,0.00,VWS V14.00,2013-03-13 22:35:00,
2013-03-13 17:40:00,43.2,19.3,29.74,NNW,343,14.4,19.9,38,0.00,,---,0.00,VWS V14.00,2013-03-13 22:40:00,
2013-03-13 17:45:00,42.8,19.0,29.74,NNW,341,13.1,16.7,38,0.00,,---,0.00,VWS V14.00,2013-03-13 22:45:00,
2013-03-13 17:50:00,42.8,19.0,29.74,NNW,333,18.5,23.1,38,0.00,,---,0.00,VWS V14.00,2013-03-13 22:50:00,
2013-03-13 17:55:00,42.4,18.6,29.74,West,279,8.1,10.7,38,0.00,,---,0.00,VWS V14.00,2013-03-13 22:55:00,
2013-03-13 18:00:00,42.4,18.0,29.74,NNW,345,4.7,9.9,37,0.00,,---,0.00,VWS V14.00,2013-03-13 23:00:00,
2013-03-13 18:05:00,42.4,18.6,29.74,NNW,334,8.7,15.9,38,0.00,,---,0.00,VWS V14.00,2013-03-13 23:05:00,
2013-03-13 18:10:00,42.1,17.7,29.74,NNE,18,12.1,15.5,37,0.00,,---,0.00,VWS V14.00,2013-03-13 23:10:00,
2013-03-13 18:15:00,41.9,18.2,29.74,NNW,341,11.4,15.5,38,0.00,,---,0.00,VWS V14.00,2013-03-13 23:15:00,
2013-03-13 18:20:00,41.4,17.7,29.74,NNW,346,16.4,20.7,38,0.00,,---,0.00,VWS V14.00,2013-03-13 23:20:00,
2013-03-13 18:25:00,41.0,17.4,29.74,NNW,334,8.7,12.3,38,0.00,,---,0.00,VWS V14.00,2013-03-13 23:25:00,
2013-03-13 18:30:00,40.8,17.2,29.74,North,353,5.4,10.7,38,0.00,,---,0.00,VWS V14.00,2013-03-13 23:30:00,
2013-03-13 18:35:00,40.5,17.5,29.74,NNW,342,5.4,14.7,39,0.00,,---,0.00,VWS V14.00,2013-03-13 23:35:00,
2013-03-13 18:40:00,40.3,17.3,29.74,NNW,345,4.0,9.9,39,0.00,,---,0.00,VWS V14.00,2013-03-13 23:40:00,
2013-03-13 18:45:00,39.9,17.6,29.74,NNW,341,6.0,12.3,40,0.00,,---,0.00,VWS V14.00,2013-03-13 23:45:00,
2013-03-13 18:50:00,39.7,17.4,29.74,NNW,342,9.4,12.3,40,0.00,,---,0.00,VWS V14.00,2013-03-13 23:50:00,
2013-03-13 18:55:00,39.4,17.1,29.74,North,0,6.0,10.7,40,0.00,,---,0.00,VWS V14.00,2013-03-13 23:55:00,
2013-03-13 19:00:00,39.0,17.3,29.74,North,357,4.7,7.4,41,0.00,,---,0.00,VWS V14.00,2013-03-14 00:00:00,
2013-03-13 19:05:00,38.7,17.0,29.74,NNE,15,5.4,7.4,41,0.00,,---,0.00,VWS V14.00,2013-03-14 00:05:00,
2013-03-13 19:10:00,38.5,16.8,29.74,North,349,4.7,6.6,41,0.00,,---,0.00,VWS V14.00,2013-03-14 00:10:00,
2013-03-13 19:15:00,38.1,16.5,29.74,North,0,0.0,1.0,41,0.00,,---,0.00,VWS V14.00,2013-03-14 00:15:00,
2013-03-13 19:20:00,37.6,16.0,29.74,NNW,337,9.4,12.3,41,0.00,,---,0.00,VWS V14.00,2013-03-14 00:20:00,
2013-03-13 19:25:00,37.6,16.0,29.74,North,357,4.0,8.2,41,0.00,,---,0.00,VWS V14.00,2013-03-14 00:25:00,
2013-03-13 19:30:00,37.0,16.1,29.74,North,357,4.7,8.2,42,0.00,,---,0.00,VWS V14.00,2013-03-14 00:30:00,
2013-03-13 19:35:00,36.9,15.9,29.74,North,11,5.4,7.4,42,0.00,,---,0.00,VWS V14.00,2013-03-14 00:35:00,
2013-03-13 19:40:00,36.9,15.9,29.74,NNE,15,4.0,7.4,42,0.00,,---,0.00,VWS V14.00,2013-03-14 00:40:00,
2013-03-13 19:45:00,36.9,15.9,29.74,NNE,20,3.4,5.8,42,0.00,,---,0.00,VWS V14.00,2013-03-14 00:45:00,
2013-03-13 19:50:00,36.3,15.4,29.74,NNE,18,0.0,1.0,42,0.00,,---,0.00,VWS V14.00,2013-03-14 00:50:00,
2013-03-13 19:55:00,35.2,15.0,29.74,North,0,0.0,1.0,43,0.00,,---,0.00,VWS V14.00,2013-03-14 00:55:00,
2013-03-13 20:00:00,34.7,15.0,29.74,North,11,3.4,8.2,44,0.00,,---,0.00,VWS V14.00,2013-03-14 01:00:00,
2013-03-13 20:05:00,34.3,15.2,29.74,North,1,0.0,5.0,45,0.00,,---,0.00,VWS V14.00,2013-03-14 01:05:00,
2013-03-13 20:10:00,34.2,15.6,29.74,North,357,4.7,7.4,46,0.00,,---,0.00,VWS V14.00,2013-03-14 01:10:00,
2013-03-13 20:15:00,34.0,15.9,29.74,North,4,7.4,9.9,47,0.00,,---,0.00,VWS V14.00,2013-03-14 01:15:00,
2013-03-13 20:20:00,34.2,16.0,29.74,North,357,4.0,5.8,47,0.00,,---,0.00,VWS V14.00,2013-03-14 01:20:00,
2013-03-13 20:25:00,33.8,16.2,29.74,North,8,3.4,7.4,48,0.00,,---,0.00,VWS V14.00,2013-03-14 01:25:00,
2013-03-13 20:30:00,33.6,16.5,29.74,North,357,5.4,7.4,49,0.00,,---,0.00,VWS V14.00,2013-03-14 01:30:00,
2013-03-13 20:35:00,34.0,16.8,29.77,North,5,4.7,8.2,49,0.00,,---,0.00,VWS V14.00,2013-03-14 01:35:00,
2013-03-13 20:40:00,34.7,17.0,29.77,North,1,4.7,8.2,48,0.00,,---,0.00,VWS V14.00,2013-03-14 01:40:00,
2013-03-13 20:45:00,34.3,16.7,29.77,North,357,4.0,7.4,48,0.00,,---,0.00,VWS V14.00,2013-03-14 01:45:00,
2013-03-13 20:50:00,33.4,15.9,29.77,North,349,5.4,9.9,48,0.00,,---,0.00,VWS V14.00,2013-03-14 01:50:00,
2013-03-13 20:55:00,33.1,16.0,29.77,North,353,4.0,5.8,49,0.00,,---,0.00,VWS V14.00,2013-03-14 01:55:00,
2013-03-13 21:00:00,32.7,16.1,29.77,North,0,4.0,6.6,50,0.00,,---,0.00,VWS V14.00,2013-03-14 02:00:00,
2013-03-13 21:05:00,32.5,16.0,29.77,North,353,0.0,1.0,50,0.00,,---,0.00,VWS V14.00,2013-03-14 02:05:00,
2013-03-13 21:10:00,32.2,16.1,29.77,North,0,4.7,6.6,51,0.00,,---,0.00,VWS V14.00,2013-03-14 02:10:00,
2013-03-13 21:15:00,32.2,16.5,29.77,North,357,3.4,7.4,52,0.00,,---,0.00,VWS V14.00,2013-03-14 02:15:00,
2013-03-13 21:20:00,32.0,16.4,29.77,North,6,0.0,1.0,52,0.00,,---,0.00,VWS V14.00,2013-03-14 02:20:00,
2013-03-13 21:25:00,31.6,16.0,29.77,North,6,0.0,1.0,52,0.00,,---,0.00,VWS V14.00,2013-03-14 02:25:00,
2013-03-13 21:30:00,31.3,15.7,29.77,North,357,6.0,8.2,52,0.00,,---,0.00,VWS V14.00,2013-03-14 02:30:00,
2013-03-13 21:35:00,31.1,16.0,29.77,North,3,4.0,5.8,53,0.00,,---,0.00,VWS V14.00,2013-03-14 02:35:00,
2013-03-13 21:40:00,31.1,16.0,29.77,NNE,16,4.7,7.4,53,0.00,,---,0.00,VWS V14.00,2013-03-14 02:40:00,
2013-03-13 21:45:00,31.1,16.0,29.77,North,357,4.7,6.6,53,0.00,,---,0.00,VWS V14.00,2013-03-14 02:45:00,
2013-03-13 21:50:00,31.1,16.0,29.77,North,357,3.4,5.0,53,0.00,,---,0.00,VWS V14.00,2013-03-14 02:50:00,
2013-03-13 21:55:00,31.1,16.0,29.77,North,2,0.0,1.0,53,0.00,,---,0.00,VWS V14.00,2013-03-14 02:55:00,
2013-03-13 22:00:00,31.1,16.0,29.77,North,9,0.0,1.0,53,0.00,,---,0.00,VWS V14.00,2013-03-14 03:00:00,
2013-03-13 22:05:00,31.1,16.4,29.77,North,9,0.0,1.0,54,0.00,,---,0.00,VWS V14.00,2013-03-14 03:05:00,
2013-03-13 22:10:00,31.3,16.6,29.77,North,9,0.0,1.0,54,0.00,,---,0.00,VWS V14.00,2013-03-14 03:10:00,
2013-03-13 22:15:00,31.6,16.5,29.77,North,9,0.0,1.0,53,0.00,,---,0.00,VWS V14.00,2013-03-14 03:15:00,
2013-03-13 22:20:00,31.8,16.6,29.77,North,9,0.0,1.0,53,0.00,,---,0.00,VWS V14.00,2013-03-14 03:20:00,
2013-03-13 22:25:00,31.1,16.0,29.77,North,9,0.0,1.0,53,0.00,,---,0.00,VWS V14.00,2013-03-14 03:25:00,
2013-03-13 22:30:00,31.1,16.0,29.77,North,9,0.0,1.0,53,0.00,,---,0.00,VWS V14.00,2013-03-14 03:30:00,
2013-03-13 22:35:00,30.2,15.6,29.77,North,9,0.0,1.0,54,0.00,,---,0.00,VWS V14.00,2013-03-14 03:35:00,
2013-03-13 22:40:00,29.8,15.2,29.77,North,9,0.0,1.0,54,0.00,,---,0.00,VWS V14.00,2013-03-14 03:40:00,
2013-03-13 22:45:00,29.5,14.9,29.77,North,9,0.0,1.0,54,0.00,,---,0.00,VWS V14.00,2013-03-14 03:45:00,
2013-03-13 22:50:00,29.3,14.7,29.77,North,9,0.0,1.0,54,0.00,,---,0.00,VWS V14.00,2013-03-14 03:50:00,
2013-03-13 22:55:00,29.1,14.6,29.77,North,9,0.0,1.0,54,0.00,,---,0.00,VWS V14.00,2013-03-14 03:55:00,
2013-03-13 23:00:00,29.3,14.7,29.77,North,9,0.0,1.0,54,0.00,,---,0.00,VWS V14.00,2013-03-14 04:00:00,
2013-03-13 23:05:00,29.1,14.6,29.77,North,9,0.0,1.0,54,0.00,,---,0.00,VWS V14.00,2013-03-14 04:05:00,
2013-03-13 23:10:00,29.1,14.6,29.77,North,9,0.0,1.0,54,0.00,,---,0.00,VWS V14.00,2013-03-14 04:10:00,
2013-03-13 23:15:00,28.9,14.4,29.77,North,9,0.0,1.0,54,0.00,,---,0.00,VWS V14.00,2013-03-14 04:15:00,
2013-03-13 23:20:00,28.9,14.8,29.77,North,9,0.0,1.0,55,0.00,,---,0.00,VWS V14.00,2013-03-14 04:20:00,
2013-03-13 23:25:00,28.8,14.6,29.77,North,9,0.0,1.0,55,0.00,,---,0.00,VWS V14.00,2013-03-14 04:25:00,
2013-03-13 23:30:00,28.8,14.6,29.77,North,9,0.0,1.0,55,0.00,,---,0.00,VWS V14.00,2013-03-14 04:30:00,
2013-03-13 23:35:00,28.6,14.9,29.77,North,9,0.0,1.0,56,0.00,,---,0.00,VWS V14.00,2013-03-14 04:35:00,
2013-03-13 23:40:00,28.8,15.1,29.77,North,9,0.0,1.0,56,0.00,,---,0.00,VWS V14.00,2013-03-14 04:40:00,
2013-03-13 23:45:00,29.1,15.4,29.77,North,9,0.0,1.0,56,0.00,,---,0.00,VWS V14.00,2013-03-14 04:45:00,
2013-03-13 23:50:00,29.1,15.4,29.77,North,9,0.0,1.0,56,0.00,,---,0.00,VWS V14.00,2013-03-14 04:50:00,
2013-03-13 23:55:00,28.8,15.1,29.77,North,9,0.0,1.0,56,0.00,,---,0.00,VWS V14.00,2013-03-14 04:55:00,